#timestamp,LO_Frequency,Hit,StdDev 
1703466015.7,286047008.6,P
1703466035.5,286047008.3,N
1703466055.3,286047010.7,N
1703466075.2,286047010.6,N
1703466095.0,286047006.9,N
1703466095.9,286047006.9,N
1703466115.7,286047007.0,N
1703466135.6,286047002.9,N
1703466155.4,286047001.1,N
1703466175.3,286046996.7,N
1703466195.1,286046999.6,N
1703466196.0,286046999.6,N
1703466215.8,286046998.0,N
1703466235.7,286046996.2,N
1703466255.5,286046994.1,N
1703466275.4,286046992.2,N
1703466295.2,286046992.4,N
1703466315.0,286046990.1,N
1703466315.9,286046990.1,N
1703466335.8,286046997.6,N
1703466355.6,286046997.8,N
1703466375.5,286046996.2,N
1703466395.3,286046996.2,N
1703466415.1,286046991.7,N
1703466435.9,286046998.0,N
1703466455.7,286046997.9,N
1703466475.5,286046998.9,N
1703466495.4,286046996.8,N
1703466515.2,286046994.7,N
1703466535.1,286046994.0,N
1703466536.0,286046994.0,N
1703466555.8,286046997.6,N
1703466575.6,286046995.3,N
1703466595.5,286046993.3,N
1703466615.3,286046993.7,N
1703466635.2,286046994.9,N
1703466655.9,286046997.6,N
1703466675.7,286047000.5,N
1703466695.6,286047002.2,N
1703466715.4,286047004.4,N
1703466735.2,286047003.4,N
1703466755.1,286047007.9,N
1703466756.0,286047007.9,N
1703466775.8,286047008.9,N
1703466795.7,286047005.1,N
1703466815.5,286047001.8,N
1703466835.3,286047002.3,N
1703466855.2,286046999.0,N
1703466875.9,286046997.2,N
1703466895.7,286046997.1,N
1703466915.6,286046996.4,N
1703466935.4,286046997.5,N
1703466955.3,286046999.0,N
1703466975.1,286046998.8,N
1703466976.0,286046998.8,N
1703466995.8,286047000.3,N
1703467015.7,286047005.5,N
1703467035.5,286047004.9,N
1703467055.3,286047005.3,N
1703467075.2,286047002.3,N
1703467095.0,286047001.1,N
1703467095.9,286047001.1,N
1703467115.8,286047002.2,N
1703467135.6,286047004.7,N
1703467155.4,286047009.2,N
1703467175.3,286047004.7,N
1703467195.1,286047008.8,N
1703467215.9,286047005.5,N
1703467235.7,286047004.0,N
1703467255.5,286047003.7,N
1703467275.4,286047004.7,N
1703467295.2,286047005.0,N
1703467315.0,286047002.0,N
1703467315.9,286047002.0,N
1703467335.8,286047000.3,N
1703467355.6,286047003.6,N
1703467375.5,286047007.2,N
1703467395.3,286047004.6,N
1703467415.1,286047005.8,N
1703467435.9,286046999.9,N
1703467455.7,286046999.0,N
1703467475.5,286046999.5,N
1703467495.4,286047001.3,N
1703467515.2,286047003.8,N
1703467535.1,286047003.5,N
1703467536.0,286047003.5,N
1703467555.8,286047000.1,N
1703467575.6,286047000.2,N
1703467595.5,286047003.5,N
1703467615.3,286047001.5,N
1703467635.1,286047000.1,N
1703467655.9,286047002.5,N
1703467675.7,286047002.1,N
1703467695.6,286047006.6,N
1703467715.4,286047011.1,Y
1703467735.2,286047008.4,P
1703467755.1,286047004.7,N
1703467756.0,286047004.7,N
1703467805.8,286047003.4,E
1703467815.8,286047003.1,N
1703467835.6,286047004.2,P
1703467855.4,286047005.7,P
1703467875.3,286047007.5,Y
1703467895.1,286047000.8,P
1703467915.9,286046999.5,N
1703467935.7,286046998.5,N
1703467955.5,286046999.6,N
1703467975.4,286046997.5,N
1703467995.2,286046993.5,Y
1703468015.0,286046992.1,P
1703468015.9,286046992.1,N
1703468035.8,286046992.6,N
1703468055.6,286046995.7,N
1703468075.5,286046997.2,N
1703468095.3,286046999.1,N
1703468115.1,286046995.2,N
1703468165.9,286046992.1,E
1703468175.8,286046996.1,N
1703468195.7,286046999.8,P
1703468215.5,286047001.4,N
1703468235.3,286047004.8,N
1703468255.2,286047010.0,Y
1703468275.0,286047008.4,P
1703468275.9,286047008.4,N
1703468295.8,286047007.5,N
1703468315.6,286047009.0,N
1703468335.4,286047007.2,N
1703468355.3,286047007.4,N
1703468375.1,286047007.2,N
1703468395.8,286047008.0,Y
1703468415.7,286047005.4,P
1703468435.5,286047003.6,P
1703468455.4,286047002.4,N
1703468475.2,286046997.1,N
1703468495.0,286046995.2,N
1703468495.9,286046995.2,N
1703468515.8,286046999.5,N
1703468535.6,286046996.8,N
1703468555.4,286046995.3,N
1703468575.3,286046995.8,N
1703468595.1,286046995.1,N
1703468615.9,286046999.9,N
1703468635.7,286047001.6,N
1703468655.5,286047000.6,N
1703468675.4,286046997.4,N
1703468695.2,286046993.5,N
1703468715.0,286046991.7,N
1703468716.0,286046991.7,N
1703468735.8,286046993.5,N
1703468755.6,286046997.6,N
1703468775.5,286046995.2,N
1703468795.3,286046997.1,N
1703468815.1,286046995.4,N
1703468835.9,286046995.2,N
1703468855.7,286047000.8,N
1703468875.6,286047004.1,N
1703468895.4,286047003.3,N
1703468915.2,286047001.5,N
1703468935.1,286046999.7,N
1703468936.0,286046999.7,N
1703468955.8,286046998.7,N
1703468975.6,286046996.9,N
1703468995.5,286046996.8,N
1703469015.3,286046994.2,N
1703469035.2,286046994.7,N
1703469055.9,286046992.4,N
1703469075.7,286046993.4,N
1703469095.6,286046995.9,N
1703469115.4,286046993.9,N
1703469135.2,286046996.0,N
1703469155.1,286046997.6,N
1703469156.0,286046997.6,N
1703469175.8,286046995.5,N
1703469195.7,286046997.4,N
1703469215.5,286046999.2,N
1703469235.3,286046997.1,N
1703469255.2,286046997.3,N
1703469275.0,286046996.2,N
1703469275.9,286046996.2,N
1703469295.7,286046997.1,N
1703469315.6,286046998.3,N
1703469335.4,286047002.4,N
1703469355.3,286047002.1,N
1703469375.1,286046998.8,N
1703469376.0,286046998.8,N
1703469395.8,286046993.7,N
1703469415.7,286046991.9,Y
1703469435.5,286046995.5,P
1703469455.3,286046995.5,P
1703469475.2,286046992.0,P
1703469495.0,286046991.8,Y
1703469495.9,286046991.8,P
1703469515.8,286047002.5,N
1703469535.6,286047002.2,N
1703469555.4,286047004.1,N
1703469575.3,286047002.8,N
1703469595.1,286046998.2,N
